Regional Weather Roundup
Issued by NWS Upton, NY

Current Version | Previous Version | Graphics & Text | Print | Product List | Glossary Off
Versions: 1 2 3 4 5 6 7 8 9 10 11 12 13 14 15 16 17 18 19 20 21 22 23 24 25 26 27 28 29 30 31 32 33 34 35 36 37 38 39 40 41 42 43 44 45 46 47 48 49 50

000
ASUS41 KOKX 302104
RWROKX

REGIONAL WEATHER ROUNDUP
NATIONAL WEATHER SERVICE NEW YORK NY
500 PM EDT SUN AUG 30 2015

NOTE: "FAIR" INDICATES FEW OR NO CLOUDS BELOW 12,000 FEET WITH NO
SIGNIFICANT WEATHER AND/OR OBSTRUCTIONS TO VISIBILITY.

NYZ071-072-176-178-NJZ106-104-302200-
NEW YORK CITY METRO AREA


CITY           SKY/WX    TMP DP  RH WIND       PRES   REMARKS
CENTRAL PARK   PTSUNNY   85  66  53 VRB5      30.04F
LAGUARDIA APRT CLOUDY    84  67  56 S9G21     30.01F
KENNEDY INTL   PTSUNNY   81  68  64 S14       30.03F
NEWARK/LIBERTY PTSUNNY   86  66  51 SE6       30.01F
BRNX BOT. GARD   N/A     82  66  57 SE5       30.01F
TETERBORO      PTSUNNY   87  65  47 S8        29.99F
$$

NYZ177-179-078>081-302200-
LONG ISLAND NEW YORK

CITY           SKY/WX    TMP DP  RH WIND       PRES   REMARKS
FARMINGDALE    PTSUNNY   82  68  62 SW12      30.03F
ISLIP          PTSUNNY   80  67  64 S14       30.02F
SHIRLEY        PTSUNNY   79  68  69 S10       30.04F
WESTHAMPTON    PTSUNNY   80  67  64 SW9       30.05F
MONTAUK POINT    N/A     79  67  66 SW8       30.04F
$$

NYZ052-065-067-302200-
HUDSON VALLEY

CITY           SKY/WX    TMP DP  RH WIND       PRES   REMARKS
WHITE PLAINS   PTSUNNY   80  70  71 CALM      30.02F
NEWBURGH       PTSUNNY   82  68  61 SW7       30.04S
MONTGOMERY     PTSUNNY   82  67  60 NW6       30.02S
POUGHKEEPSIE   PTSUNNY   77  70  79 NW5       30.01R
ALBANY         PTSUNNY   81  62  52 S5        30.01F
$$

NJZ001-105-106-008-010-013-015-019>022-104-302200-
NEW JERSEY

CITY           SKY/WX    TMP DP  RH WIND       PRES   REMARKS
NEWARK/LIBERTY PTSUNNY   86  66  51 SE6       30.01F
TETERBORO      PTSUNNY   87  65  47 S8        29.99F
CALDWELL       PTSUNNY   88  63  43 W7        30.01F
MORRISTOWN     CLOUDY    90  64  43 MISG      30.02F HX  91
SOMERVILLE     PTSUNNY   88  63  43 VRB3      29.99F
SUSSEX         LGT RAIN  76  72  87 CALM      30.03F FOG
ANDOVER          N/A     81  68  64 CALM      30.04F
TRENTON        MOSUNNY   88  65  46 SW6       30.02F HX  90
MILLVILLE      PTSUNNY   83  66  56 SW6       30.06F
ATLANTIC CITY  PTSUNNY   85  63  47 SW12      30.06S
WRIGHTSTOWN    MOSUNNY   88  67  49 SW13      30.00F HX  91
TOMS RIVER     MOSUNNY   90  63  40 SW12      30.04S HX  90
BELMAR         MOSUNNY   90  64  43 W6        30.03F HX  91
$$

PAZ047>061-062-071-302200-
EASTERN PENNSYLVANIA

CITY           SKY/WX    TMP DP  RH WIND       PRES   REMARKS
PHILADELPHIA   PTSUNNY   89  63  41 SW10      30.04F HX  90
ALLENTOWN      PTSUNNY   85  63  47 W9        30.03F
SCRANTON       CLOUDY    85  62  46 SW15      30.04S
$$

CTZ002-004>006-009-010-012-RIZ004-006-007-MAZ004-011-015-302200-
SOUTHERN NEW ENGLAND
 IN CT

CITY           SKY/WX    TMP DP  RH WIND       PRES   REMARKS
BRADLEY INTL   PTSUNNY   85  61  44 SW6       29.99F
HARTFORD       MOSUNNY   87  61  41 W9        29.98F
DANBURY        PTSUNNY   83  64  52 SW6       30.04S
WTRBRY/OXFORD  PTSUNNY   82  64  54 SW8       30.05F
BRIDGEPORT     PTSUNNY   83  70  64 S8        30.01F
MERIDEN        MOSUNNY   86  62  44 S9        30.00F
NEW HAVEN      PTSUNNY   82  68  62 S7        30.02F
CHESTER        NOT AVBL
GROTON         PTSUNNY   78  72  81 SW8       30.02S
WILLIMANTIC    MOSUNNY   87  59  38 W5        30.00F

 IN RI

CITY           SKY/WX    TMP DP  RH WIND       PRES   REMARKS
PROVIDENCE     MOSUNNY   87  60  40 VRB7      30.00F
BLOCK ISLAND   PTSUNNY   75  70  83 SW14      30.04S
WESTERLY       PTSUNNY   79  67  66 SW10      30.03F

 IN MA

CITY           SKY/WX    TMP DP  RH WIND       PRES   REMARKS
BOSTON         PTSUNNY   86  58  38 W9        29.98F
WORCESTER      MOSUNNY   79  60  52 W8        30.05F
WESTFIELD      MOSUNNY   84  62  47 S5        30.00F
PROVINCETOWN   PTSUNNY   81  64  57 SW5       30.00F
NANTUCKET      MOSUNNY   76  70  82 SW14      30.03F
$$

ANZ330-335-338-340-345-350-353-355-302200-
COASTAL MARINE OBSERVATIONS


STATION/POSITION TIME  SKY/WX   TEMP    WIND        PRES    VSBY  WAVE
                                AIR SEA DIR/SP/G                  HT/PER
                 (UTC)          (F)     (DEG/KT/KT) (MB)    (MI)  (FT/S)
NY HARB ENTRANCE 1950            77 77  190/ 14/ 17 1017.0          3/11
4S FIRE IS       NOT AVBL
20S FIRE ISLAND  1950            76 75  210/ 12/ 12 1017.6          3/10
GREAT SOUTH BAY  2030            76 78  220/ 12/ 16   N/A
23SW MTP         2050            74 73  240/ 12/ 14 1017.0          3/ 9
HUDSON CANYON    NOT AVBL
KINGS POINT      NOT AVBL
EXECUTION ROCKS  2000            82     190/ 10/ 12   N/A
CENTRAL LI SOUND NOT AVBL
EASTERN LI SOUND 2000            74 70  200/  4/  4   N/A
ROBBINS REEF     NOT AVBL
$$


>>>>>>>>>>>>>>>>>>>>>>>>>>>> KEY <<<<<<<<<<<<<<<<<<<<<<<<<<<
>                                                          <
>     SKY/WX - SKY CONDITION/PRESENT WEATHER               <
>     TMP    - TEMPERATURE IN FAHRENHEIT                   <
>     DP     - DEWPOINT IN FAHRENHEIT                      <
>     RH     - RELATIVE HUMIDITY IN PERCENT                <
>     WIND   - DIRECTION AND SPEED IN MPH                  <
>     PRES   - MEAN SEA LEVEL PRESSURE IN INCHES OF HG     <
>     WCI    - WIND CHILL INDEX                            <
>     VSB    - VISIBILITY IN MILES                         <
>     HX     - HEAT INDEX                                  <
>     TC     - TEMPERATURE IN CELSIUS                      <
>     VRB    - VARIABLE WIND DIRECTION                     <
>                                                          <
>>>>>>>>>>>>>>>>>>>>>>>>>>>> KEY <<<<<<<<<<<<<<<<<<<<<<<<<<<





USA.gov is the U.S. government's official web portal to all federal, state and local government web resources and services.